Satellite: RS-38 Catalog number: 35869 Epoch time: 11307.18732354 Element set: 846 Inclination: 098.6857 deg RA of node: 000.4155 deg Eccentricity: 0.0004779 Arg of perigee: 359.3966 deg Mean anomaly: 000.7210 deg Mean motion: 14.22030233 rev/day Decay rate: 9.2e-07 rev/day^2 Epoch rev: 11035 Checksum: 293
Satellite: ARISSAT1 Catalog number: 37772 Epoch time: 11307.40947468 Element set: 279 Inclination: 051.6351 deg RA of node: 177.1363 deg Eccentricity: 0.0004615 Arg of perigee: 057.2722 deg Mean anomaly: 109.6470 deg Mean motion: 15.72739585 rev/day Decay rate: 1.58859e-03 rev/day^2 Epoch rev: 1426 Checksum: 323
Satellite: SRMSAT Catalog number: 37839 Epoch time: 11306.33953534 Element set: 20 Inclination: 019.9625 deg RA of node: 298.5106 deg Eccentricity: 0.0018972 Arg of perigee: 233.9594 deg Mean anomaly: 125.9041 deg Mean motion: 14.11980734 rev/day Decay rate: 6.19e-06 rev/day^2 Epoch rev: 300 Checksum: 291
Satellite: JUGNU Catalog number: 37841 Epoch time: 11306.29726232 Element set: 0019 Inclination: 019.9693 deg RA of node: 299.1858 deg Eccentricity: 0.0011621 Arg of perigee: 210.8240 deg Mean anomaly: 149.1517 deg Mean motion: 14.10079147 rev/day Decay rate: 2.64e-06 rev/day^2 Epoch rev: 00299 Checksum: 287
/EX
participants (1)
-
Ray Hoad